,,,PA_Meas_PMT16A,,PR_Meas_QMR101_102,,RH_Meas_QMH101,,SR_Meas_QMS101,,TA_Meas_QMH101,,GenWind,,GenWind,
date,time,status,PA,status,PR,status,RH,status,SR,status,TA,status,DirAvg,status,SpdAvg,
2009-09-05, 00:00:04,VALID,1004.1,VALID,0,VALID,89.5707,VALID,0,VALID,24.8735,VALID,338,VALID,0.607422,
2009-09-05, 00:01:04,VALID,1004.08,VALID,0,VALID,89.5325,VALID,0,VALID,24.8327,VALID,352,VALID,0.615625,
2009-09-05, 00:02:04,VALID,1004.06,VALID,0,VALID,89.6622,VALID,0,VALID,24.8132,VALID,17,VALID,1.07539,
2009-09-05, 00:03:04,VALID,1004.04,VALID,0,VALID,89.6088,VALID,0,VALID,24.8327,VALID,27,VALID,0.785547,
2009-09-05, 00:04:04,VALID,1004.02,VALID,0,VALID,89.3037,VALID,0,VALID,24.8327,VALID,2,VALID,1.65352,
2009-09-05, 00:05:04,VALID,1004.01,VALID,0,VALID,89.2045,VALID,0,VALID,24.8308,VALID,354,VALID,1.53984,
2009-09-05, 00:06:04,VALID,1003.99,VALID,0,VALID,88.5637,VALID,0,VALID,24.8697,VALID,16,VALID,2.48828,
2009-09-05, 00:07:04,VALID,1003.97,VALID,0,VALID,87.8847,VALID,0,VALID,25.0274,VALID,351,VALID,1.66016,
2009-09-05, 00:08:04,VALID,1003.95,VALID,0,VALID,87.1905,VALID,0,VALID,25.0274,VALID,19,VALID,1.31133,
2009-09-05, 00:09:04,VALID,1003.99,VALID,0,VALID,87.1981,VALID,0,VALID,25.1248,VALID,23,VALID,1.47656,
2009-09-05, 00:10:04,VALID,1003.95,VALID,0,VALID,86.9921,VALID,0,VALID,25.1442,VALID,9,VALID,1.56094,
2009-09-05, 00:11:04,VALID,1003.93,VALID,0,VALID,86.2674,VALID,0,VALID,25.2416,VALID,7,VALID,1.37266,
2009-09-05, 00:12:04,VALID,1003.94,VALID,0,VALID,86.3513,VALID,0,VALID,25.2416,VALID,21,VALID,1.07695,
2009-09-05, 00:13:04,VALID,1003.91,VALID,0,VALID,86.1224,VALID,0,VALID,25.2611,VALID,56,VALID,1.46055,
2009-09-05, 00:14:04,VALID,1003.89,VALID,0,VALID,86.214,VALID,0,VALID,25.3195,VALID,9,VALID,0.721875,
2009-09-05, 00:15:04,VALID,1003.93,VALID,0,VALID,86.1911,VALID,0,VALID,25.3,VALID,11,VALID,1.77266,
2009-09-05, 00:16:04,VALID,1003.89,VALID,0,VALID,85.9775,VALID,0,VALID,25.3,VALID,44,VALID,1.31406,
2009-09-05, 00:17:04,VALID,1003.92,VALID,0,VALID,86.6336,VALID,0,VALID,25.3195,VALID,9,VALID,0.963281,
2009-09-05, 00:18:04,VALID,1003.9,VALID,0,VALID,86.3971,VALID,0,VALID,25.2786,VALID,15,VALID,0.920313,
2009-09-05, 00:19:04,VALID,1003.9,VALID,0,VALID,86.275,VALID,0,VALID,25.2806,VALID,26,VALID,1.05703,
2009-09-05, 00:20:04,VALID,1003.89,VALID,0,VALID,86.2674,VALID,0,VALID,25.2786,VALID,349,VALID,0.991797,
2009-09-05, 00:21:04,VALID,1003.85,VALID,0,VALID,86.2903,VALID,0,VALID,25.2611,VALID,4,VALID,1.03477,
2009-09-05, 00:22:04,VALID,1003.88,VALID,0,VALID,86.3132,VALID,0,VALID,25.2806,VALID,32,VALID,0.941016,
2009-09-05, 00:23:04,VALID,1003.84,VALID,0,VALID,86.1758,VALID,0,VALID,25.3,VALID,32,VALID,1.42344,
2009-09-05, 00:24:04,VALID,1003.82,VALID,0,VALID,86.1987,VALID,0,VALID,25.2806,VALID,37,VALID,0.702344,
2009-09-05, 00:25:04,VALID,1003.84,VALID,0,VALID,86.2598,VALID,0,VALID,25.2611,VALID,42,VALID,0.716797,
2009-09-05, 00:26:04,VALID,1003.79,VALID,0,VALID,86.0843,VALID,0,VALID,25.2202,VALID,25,VALID,0.983594,
2009-09-05, 00:27:04,VALID,1003.79,VALID,0,VALID,86.1072,VALID,0,VALID,25.2611,VALID,34,VALID,0.817578,
2009-09-05, 00:28:04,VALID,1003.8,VALID,0,VALID,85.8173,VALID,0,VALID,25.2806,VALID,34,VALID,1.01484,
2009-09-05, 00:29:04,VALID,1003.81,VALID,0,VALID,86.0995,VALID,0,VALID,25.2806,VALID,27,VALID,0.730078,
2009-09-05, 00:30:04,VALID,1003.8,VALID,0,VALID,85.9699,VALID,0,VALID,25.2611,VALID,23,VALID,0.618359,
2009-09-05, 00:31:04,VALID,1003.84,VALID,0,VALID,86.0919,VALID,0,VALID,25.2611,VALID,5,VALID,0.647656,
2009-09-05, 00:32:04,VALID,1003.83,VALID,0,VALID,85.3672,VALID,0,VALID,25.263,VALID,23,VALID,2.12852,
2009-09-05, 00:33:04,VALID,1003.89,VALID,0,VALID,85.4282,VALID,0,VALID,25.3,VALID,343,VALID,0.385156,
2009-09-05, 00:34:04,VALID,1003.87,VALID,0,VALID,85.2222,VALID,0,VALID,25.2786,VALID,37,VALID,1.29961,
2009-09-05, 00:35:04,VALID,1003.87,VALID,0,VALID,84.2152,VALID,0,VALID,25.3584,VALID,11,VALID,2.03008,
2009-09-05, 00:36:04,VALID,1003.88,VALID,0,VALID,84.1923,VALID,0,VALID,25.3974,VALID,5,VALID,1.29453,
2009-09-05, 00:37:04,VALID,1003.91,VALID,0,VALID,84.1466,VALID,0,VALID,25.4169,VALID,48,VALID,0.719141,
2009-09-05, 00:38:04,VALID,1003.86,VALID,0,VALID,83.3989,VALID,0,VALID,25.4169,VALID,18,VALID,1.78711,
2009-09-05, 00:39:04,VALID,1003.85,VALID,0,VALID,84.0169,VALID,0,VALID,25.4344,VALID,31,VALID,0.5375,
2009-09-05, 00:40:04,VALID,1003.86,VALID,0,VALID,83.582,VALID,0,VALID,25.4169,VALID,36,VALID,0.657422,
2009-09-05, 00:41:04,VALID,1003.83,VALID,0,VALID,83.9558,VALID,0,VALID,25.4383,VALID,13,VALID,0.497656,
2009-09-05, 00:42:04,VALID,1003.81,VALID,0,VALID,84.0169,VALID,0,VALID,25.3974,VALID,84,VALID,0.498437,
2009-09-05, 00:43:04,VALID,1003.81,VALID,0,VALID,84.1771,VALID,0,VALID,25.3779,VALID,29,VALID,0.951563,
2009-09-05, 00:44:04,VALID,1003.77,VALID,0,VALID,84.4441,VALID,0,VALID,25.3584,VALID,41,VALID,0.510156,
2009-09-05, 00:45:04,VALID,1003.75,VALID,0,VALID,84.5814,VALID,0,VALID,25.339,VALID,39,VALID,0.00195313,
2009-09-05, 00:46:04,VALID,1003.74,VALID,0,VALID,85.001,VALID,0,VALID,25.3,VALID,39,VALID,0,
2009-09-05, 00:47:04,VALID,1003.72,VALID,0,VALID,85.3901,VALID,0,VALID,25.2806,VALID,9,VALID,0.849219,
2009-09-05, 00:48:04,VALID,1003.68,VALID,0,VALID,85.5579,VALID,0,VALID,25.2221,VALID,8,VALID,0.6375,
2009-09-05, 00:49:04,VALID,1003.66,VALID,0,VALID,86.0004,VALID,0,VALID,25.1832,VALID,19,VALID,0.751172,
2009-09-05, 00:50:04,VALID,1003.64,VALID,0,VALID,86.3513,VALID,0,VALID,25.1637,VALID,355,VALID,0.695703,
2009-09-05, 00:51:04,VALID,1003.64,VALID,0,VALID,86.6183,VALID,0,VALID,25.1248,VALID,41,VALID,0.839453,
2009-09-05, 00:52:04,VALID,1003.6,VALID,0,VALID,86.7709,VALID,0,VALID,25.0858,VALID,31,VALID,0.45625,
2009-09-05, 00:53:04,VALID,1003.59,VALID,0,VALID,86.5954,VALID,0,VALID,25.0469,VALID,27,VALID,0.395312,
2009-09-05, 00:54:04,VALID,1003.59,VALID,0,VALID,86.0461,VALID,0,VALID,25.0663,VALID,57,VALID,0.725781,
2009-09-05, 00:55:04,VALID,1003.59,VALID,0,VALID,85.8554,VALID,0,VALID,25.0663,VALID,48,VALID,0.304688,
2009-09-05, 00:56:04,VALID,1003.57,VALID,0,VALID,86.3894,VALID,0,VALID,25.0858,VALID,48,VALID,0.165234,
2009-09-05, 00:57:04,VALID,1003.58,VALID,0,VALID,86.1682,VALID,0,VALID,25.0858,VALID,48,VALID,0.258203,
2009-09-05, 00:58:04,VALID,1003.57,VALID,0,VALID,86.0614,VALID,0,VALID,25.045,VALID,48,VALID,0.29375,
2009-09-05, 00:59:04,VALID,1003.58,VALID,0,VALID,86.4886,VALID,0,VALID,25.0858,VALID,50,VALID,0.474609,
2009-09-05, 01:00:04,VALID,1003.56,VALID,0,VALID,86.3513,VALID,0,VALID,25.0469,VALID,60,VALID,0.326953,
2009-09-05, 01:01:04,VALID,1003.53,VALID,0,VALID,86.0843,VALID,0,VALID,25.045,VALID,60,VALID,0.348437,
2009-09-05, 01:02:04,VALID,1003.51,VALID,0,VALID,86.2216,VALID,0,VALID,25.0663,VALID,60,VALID,0.178125,
2009-09-05, 01:03:04,VALID,1003.48,VALID,0,VALID,86.3742,VALID,0,VALID,25.0663,VALID,60,VALID,0.307813,
2009-09-05, 01:04:04,VALID,1003.47,VALID,0,VALID,86.2064,VALID,0,VALID,25.0469,VALID,60,VALID,0.212891,
2009-09-05, 01:05:04,VALID,1003.51,VALID,0,VALID,86.3589,VALID,0,VALID,25.0274,VALID,60,VALID,0.0347656,
2009-09-05, 01:06:04,VALID,1003.51,VALID,0,VALID,86.5039,VALID,0,VALID,25.006,VALID,60,VALID,0.0246094,
2009-09-05, 01:07:04,VALID,1003.51,VALID,0,VALID,86.4047,VALID,0,VALID,25.0293,VALID,60,VALID,0.238672,
2009-09-05, 01:08:04,VALID,1003.46,VALID,0,VALID,86.6946,VALID,0,VALID,25.006,VALID,115,VALID,0.554688,
2009-09-05, 01:09:04,VALID,1003.46,VALID,0,VALID,86.9998,VALID,0,VALID,25.0274,VALID,115,VALID,0.553906,
2009-09-05, 01:10:04,VALID,1003.51,VALID,0,VALID,86.6717,VALID,0,VALID,25.006,VALID,115,VALID,0.191406,
2009-09-05, 01:11:04,VALID,1003.5,VALID,0,VALID,86.8243,VALID,0,VALID,25.0079,VALID,115,VALID,0.00078125,
2009-09-05, 01:12:04,VALID,1003.48,VALID,0,VALID,87.076,VALID,0,VALID,25.0079,VALID,115,VALID,0.365234,
2009-09-05, 01:13:04,VALID,1003.46,VALID,0,VALID,87.7092,VALID,0.100563,VALID,25.0079,VALID,115,VALID,0.0691406,
2009-09-05, 01:14:04,VALID,1003.43,VALID,0,VALID,88.2509,VALID,0,VALID,24.9671,VALID,115,VALID,0.00429688,
2009-09-05, 01:15:04,VALID,1003.43,VALID,0,VALID,88.7162,VALID,0.100563,VALID,24.9282,VALID,115,VALID,0.366016,
2009-09-05, 01:16:04,VALID,1003.43,VALID,0,VALID,88.8459,VALID,0,VALID,24.8911,VALID,115,VALID,0.0519531,
2009-09-05, 01:17:04,VALID,1003.42,VALID,0,VALID,89.1587,VALID,0,VALID,24.8308,VALID,115,VALID,0.192578,
2009-09-05, 01:18:04,VALID,1003.43,VALID,0,VALID,89.6393,VALID,0,VALID,24.7919,VALID,115,VALID,0,
2009-09-05, 01:19:04,VALID,1003.42,VALID,0,VALID,89.8453,VALID,0,VALID,24.7335,VALID,115,VALID,0,
2009-09-05, 01:20:04,VALID,1003.42,VALID,0,VALID,90.181,VALID,0,VALID,24.7353,VALID,115,VALID,0,
2009-09-05, 01:21:04,VALID,1003.44,VALID,0,VALID,90.3031,VALID,0,VALID,24.6769,VALID,115,VALID,0,
2009-09-05, 01:22:04,VALID,1003.5,VALID,0,VALID,90.5548,VALID,0,VALID,24.6185,VALID,115,VALID,0,
2009-09-05, 01:23:04,VALID,1003.49,VALID,0,VALID,90.9973,VALID,0,VALID,24.599,VALID,115,VALID,0,
2009-09-05, 01:24:04,VALID,1003.53,VALID,0,VALID,91.3406,VALID,0,VALID,24.5601,VALID,115,VALID,0.0867188,
2009-09-05, 01:25:04,VALID,1003.56,VALID,0,VALID,91.6839,VALID,0,VALID,24.5212,VALID,115,VALID,0.389844,
2009-09-05, 01:26:04,VALID,1003.56,VALID,0,VALID,91.9814,VALID,0.100563,VALID,24.4804,VALID,115,VALID,0.147266,
2009-09-05, 01:27:04,VALID,1003.6,VALID,0,VALID,92.1645,VALID,0.100563,VALID,24.4609,VALID,115,VALID,0.235547,
2009-09-05, 01:28:04,VALID,1003.61,VALID,0,VALID,91.867,VALID,0.100563,VALID,24.4025,VALID,99,VALID,0.221875,
2009-09-05, 01:29:04,VALID,1003.64,VALID,0,VALID,91.7831,VALID,0,VALID,24.383,VALID,99,VALID,0.00507812,
2009-09-05, 01:30:04,VALID,1003.62,VALID,0,VALID,91.6991,VALID,0.100563,VALID,24.4238,VALID,121,VALID,0.214453,
2009-09-05, 01:31:04,VALID,1003.64,VALID,0,VALID,91.6534,VALID,0.100563,VALID,24.422,VALID,126,VALID,0.204688,
2009-09-05, 01:32:04,VALID,1003.62,VALID,0,VALID,91.4626,VALID,0,VALID,24.4433,VALID,126,VALID,0.241797,
2009-09-05, 01:33:04,VALID,1003.62,VALID,0,VALID,91.2796,VALID,0,VALID,24.4201,VALID,126,VALID,0.0183594,
2009-09-05, 01:34:04,VALID,1003.6,VALID,0,VALID,91.0965,VALID,0,VALID,24.4414,VALID,121,VALID,0.040625,
2009-09-05, 01:35:04,VALID,1003.57,VALID,0,VALID,90.9591,VALID,0.100563,VALID,24.4609,VALID,12,VALID,0.555078,
2009-09-05, 01:36:04,VALID,1003.55,VALID,0,VALID,91.0736,VALID,0.100563,VALID,24.5017,VALID,12,VALID,0.449609,
2009-09-05, 01:37:04,VALID,1003.59,VALID,0,VALID,91.0049,VALID,0,VALID,24.4998,VALID,12,VALID,0.139453,
2009-09-05, 01:38:04,VALID,1003.54,VALID,0,VALID,90.8371,VALID,0,VALID,24.5017,VALID,12,VALID,0.292969,
2009-09-05, 01:39:04,VALID,1003.56,VALID,0,VALID,90.9134,VALID,0,VALID,24.5212,VALID,12,VALID,0.0941406,
2009-09-05, 01:40:04,VALID,1003.59,VALID,0,VALID,90.7684,VALID,0,VALID,24.4804,VALID,83,VALID,0.278516,
2009-09-05, 01:41:04,VALID,1003.62,VALID,0,VALID,91.1193,VALID,0.100563,VALID,24.4998,VALID,83,VALID,0.235156,
2009-09-05, 01:42:04,VALID,1003.66,VALID,0,VALID,91.5389,VALID,0.100563,VALID,24.5017,VALID,83,VALID,0.182031,
2009-09-05, 01:43:04,VALID,1003.64,VALID,0,VALID,91.8517,VALID,0.100563,VALID,24.4804,VALID,83,VALID,0.453906,
2009-09-05, 01:44:04,VALID,1003.7,VALID,0,VALID,92.0272,VALID,0,VALID,24.422,VALID,87,VALID,0.324219,
2009-09-05, 01:45:04,VALID,1003.72,VALID,0,VALID,92.2713,VALID,0,VALID,24.4433,VALID,87,VALID,0.28125,
2009-09-05, 01:46:04,VALID,1003.73,VALID,0.5,VALID,92.3629,VALID,0.100563,VALID,24.4043,VALID,87,VALID,0.259766,
2009-09-05, 01:47:04,VALID,1003.74,VALID,0,VALID,92.4544,VALID,0,VALID,24.3441,VALID,171,VALID,0.402734,
2009-09-05, 01:48:04,VALID,1003.75,VALID,0,VALID,92.607,VALID,0.100563,VALID,24.3246,VALID,140,VALID,1.13984,
2009-09-05, 01:49:04,VALID,1003.79,VALID,0,VALID,92.4315,VALID,0,VALID,24.3654,VALID,142,VALID,1.05703,
2009-09-05, 01:50:04,VALID,1003.8,VALID,0,VALID,92.401,VALID,0,VALID,24.3849,VALID,133,VALID,0.737109,
2009-09-05, 01:51:04,VALID,1003.81,VALID,0,VALID,92.3095,VALID,0,VALID,24.3636,VALID,157,VALID,0.717578,
2009-09-05, 01:52:04,VALID,1003.81,VALID,0,VALID,92.1798,VALID,0,VALID,24.3636,VALID,139,VALID,1.02344,
2009-09-05, 01:53:04,VALID,1003.8,VALID,0,VALID,91.8822,VALID,0,VALID,24.383,VALID,139,VALID,1.43125,
2009-09-05, 01:54:04,VALID,1003.81,VALID,0,VALID,91.7525,VALID,0,VALID,24.4433,VALID,138,VALID,1.39609,
2009-09-05, 01:55:04,VALID,1003.8,VALID,0,VALID,91.5313,VALID,0,VALID,24.4822,VALID,124,VALID,0.976953,
2009-09-05, 01:56:04,VALID,1003.8,VALID,0,VALID,91.4016,VALID,0,VALID,24.5406,VALID,104,VALID,0.804297,
2009-09-05, 01:57:04,VALID,1003.8,VALID,0,VALID,91.333,VALID,0,VALID,24.5406,VALID,107,VALID,0.641016,
2009-09-05, 01:58:04,VALID,1003.79,VALID,0,VALID,91.4779,VALID,0.100563,VALID,24.5193,VALID,107,VALID,0.59375,
2009-09-05, 01:59:04,VALID,1003.78,VALID,0,VALID,91.6,VALID,0,VALID,24.4804,VALID,115,VALID,1.04062,
2009-09-05, 02:00:04,VALID,1003.81,VALID,0,VALID,91.6991,VALID,0.100563,VALID,24.4998,VALID,155,VALID,0.986328,
2009-09-05, 02:01:04,VALID,1003.77,VALID,0,VALID,91.7449,VALID,0,VALID,24.5212,VALID,83,VALID,0.815234,
2009-09-05, 02:02:04,VALID,1003.77,VALID,0,VALID,91.9585,VALID,0.100563,VALID,24.4998,VALID,133,VALID,1.53906,
2009-09-05, 02:03:04,VALID,1003.76,VALID,0.5,VALID,92.2332,VALID,0.100563,VALID,24.5193,VALID,130,VALID,1.38125,
2009-09-05, 02:04:04,VALID,1003.78,VALID,0,VALID,92.3705,VALID,0.100563,VALID,24.4998,VALID,137,VALID,1.39297,
2009-09-05, 02:05:04,VALID,1003.79,VALID,0,VALID,92.546,VALID,0.100563,VALID,24.4998,VALID,125,VALID,0.785547,
2009-09-05, 02:06:04,VALID,1003.79,VALID,0,VALID,92.7062,VALID,0,VALID,24.4609,VALID,145,VALID,0.960547,
2009-09-05, 02:07:04,VALID,1003.78,VALID,0,VALID,92.9045,VALID,0.100563,VALID,24.4609,VALID,129,VALID,0.859375,
2009-09-05, 02:08:04,VALID,1003.76,VALID,0,VALID,93.0418,VALID,0.100563,VALID,24.4609,VALID,144,VALID,0.952734,
2009-09-05, 02:09:04,VALID,1003.78,VALID,0,VALID,93.1791,VALID,0.100563,VALID,24.4822,VALID,135,VALID,1.25234,
2009-09-05, 02:10:04,VALID,1003.77,VALID,0,VALID,93.3317,VALID,0.100563,VALID,24.4609,VALID,105,VALID,0.992578,
2009-09-05, 02:11:04,VALID,1003.76,VALID,0,VALID,93.4614,VALID,0.100563,VALID,24.4609,VALID,129,VALID,0.998438,
2009-09-05, 02:12:04,VALID,1003.76,VALID,0,VALID,93.553,VALID,0.100563,VALID,24.4609,VALID,146,VALID,0.469531,
2009-09-05, 02:13:04,VALID,1003.75,VALID,0,VALID,93.614,VALID,0.100563,VALID,24.4822,VALID,117,VALID,0.677734,
2009-09-05, 02:14:04,VALID,1003.76,VALID,0,VALID,93.7132,VALID,0.100563,VALID,24.4609,VALID,108,VALID,0.899219,
2009-09-05, 02:15:04,VALID,1003.78,VALID,0,VALID,93.7818,VALID,0.100563,VALID,24.4609,VALID,130,VALID,0.683594,
2009-09-05, 02:16:04,VALID,1003.78,VALID,0,VALID,93.82,VALID,0,VALID,24.4804,VALID,111,VALID,0.694531,
2009-09-05, 02:17:04,VALID,1003.78,VALID,0,VALID,93.8352,VALID,0,VALID,24.4804,VALID,77,VALID,0.574219,
2009-09-05, 02:18:04,VALID,1003.76,VALID,0,VALID,93.8352,VALID,0.100563,VALID,24.4804,VALID,101,VALID,1.10273,
2009-09-05, 02:19:04,VALID,1003.79,VALID,0.5,VALID,93.8352,VALID,0.100563,VALID,24.5212,VALID,98,VALID,0.528516,
2009-09-05, 02:20:04,VALID,1003.81,VALID,0,VALID,93.8123,VALID,0.100563,VALID,24.4998,VALID,92,VALID,0.398828,
2009-09-05, 02:21:04,VALID,1003.83,VALID,0,VALID,93.8276,VALID,0,VALID,24.5017,VALID,92,VALID,0.187891,
2009-09-05, 02:22:04,VALID,1003.86,VALID,0,VALID,93.82,VALID,0.100563,VALID,24.4804,VALID,96,VALID,0.780078,
2009-09-05, 02:23:04,VALID,1003.82,VALID,0,VALID,93.8505,VALID,0.100563,VALID,24.4609,VALID,100,VALID,0.469141,
2009-09-05, 02:24:04,VALID,1003.82,VALID,0,VALID,93.8657,VALID,0.100563,VALID,24.4804,VALID,100,VALID,0.194531,
2009-09-05, 02:25:04,VALID,1003.81,VALID,0,VALID,93.8581,VALID,0.100563,VALID,24.4609,VALID,80,VALID,0.248047,
2009-09-05, 02:26:04,VALID,1003.77,VALID,0,VALID,93.8581,VALID,0.100563,VALID,24.4414,VALID,82,VALID,0.246875,
2009-09-05, 02:27:04,VALID,1003.75,VALID,0,VALID,93.8734,VALID,0.100563,VALID,24.4414,VALID,111,VALID,0.815234,
2009-09-05, 02:28:04,VALID,1003.76,VALID,0,VALID,93.9039,VALID,0.100563,VALID,24.4414,VALID,130,VALID,0.640625,
2009-09-05, 02:29:04,VALID,1003.79,VALID,0,VALID,93.881,VALID,0.100563,VALID,24.4609,VALID,132,VALID,1.26328,
2009-09-05, 02:30:04,VALID,1003.78,VALID,0,VALID,93.8047,VALID,0,VALID,24.4804,VALID,138,VALID,1.31406,
2009-09-05, 02:31:04,VALID,1003.82,VALID,0,VALID,93.6598,VALID,0,VALID,24.4998,VALID,129,VALID,1.12461,
2009-09-05, 02:32:04,VALID,1003.84,VALID,0,VALID,93.4309,VALID,0.100563,VALID,24.5388,VALID,101,VALID,1.27188,
2009-09-05, 02:33:04,VALID,1003.85,VALID,0,VALID,93.347,VALID,0.100563,VALID,24.5388,VALID,130,VALID,0.700391,
2009-09-05, 02:34:04,VALID,1003.88,VALID,0,VALID,93.3012,VALID,0.100563,VALID,24.5388,VALID,160,VALID,0.770312,
2009-09-05, 02:35:04,VALID,1003.88,VALID,0,VALID,93.2554,VALID,0,VALID,24.5193,VALID,172,VALID,1.09492,
2009-09-05, 02:36:04,VALID,1003.86,VALID,0,VALID,93.3012,VALID,0.100563,VALID,24.5388,VALID,145,VALID,0.696094,
2009-09-05, 02:37:04,VALID,1003.84,VALID,0,VALID,93.347,VALID,0.100563,VALID,24.5193,VALID,157,VALID,0.41875,
2009-09-05, 02:38:04,VALID,1003.83,VALID,0,VALID,93.3088,VALID,0.100563,VALID,24.4785,VALID,153,VALID,0.642969,
2009-09-05, 02:39:04,VALID,1003.84,VALID,0,VALID,93.3165,VALID,0.100563,VALID,24.5017,VALID,175,VALID,0.585938,
2009-09-05, 02:40:04,VALID,1003.81,VALID,0,VALID,93.3165,VALID,0.100563,VALID,24.4804,VALID,183,VALID,0.570313,
2009-09-05, 02:41:04,VALID,1003.81,VALID,0,VALID,93.3088,VALID,0.100563,VALID,24.4822,VALID,205,VALID,0.785547,
2009-09-05, 02:42:04,VALID,1003.81,VALID,0,VALID,93.347,VALID,0.100563,VALID,24.4609,VALID,166,VALID,0.464453,
2009-09-05, 02:43:04,VALID,1003.81,VALID,0,VALID,93.3699,VALID,0,VALID,24.4628,VALID,167,VALID,0.281641,
2009-09-05, 02:44:04,VALID,1003.82,VALID,0,VALID,93.3699,VALID,0,VALID,24.4433,VALID,168,VALID,0.501953,
2009-09-05, 02:45:04,VALID,1003.82,VALID,0,VALID,93.2631,VALID,0.100563,VALID,24.4238,VALID,170,VALID,0.635547,
2009-09-05, 02:46:04,VALID,1003.83,VALID,0,VALID,93.1944,VALID,0,VALID,24.383,VALID,170,VALID,0.538281,
2009-09-05, 02:47:04,VALID,1003.81,VALID,0,VALID,93.1944,VALID,0,VALID,24.3849,VALID,170,VALID,0.35,
2009-09-05, 02:48:04,VALID,1003.81,VALID,0,VALID,93.2173,VALID,0,VALID,24.3849,VALID,170,VALID,0.169531,
2009-09-05, 02:49:04,VALID,1003.86,VALID,0,VALID,93.2478,VALID,0.100563,VALID,24.3636,VALID,170,VALID,0.33125,
2009-09-05, 02:50:04,VALID,1003.89,VALID,0,VALID,93.3394,VALID,0,VALID,24.3441,VALID,170,VALID,0,
2009-09-05, 02:51:04,VALID,1003.88,VALID,0,VALID,93.4004,VALID,0,VALID,24.3246,VALID,170,VALID,0.105859,
2009-09-05, 02:52:04,VALID,1003.87,VALID,0,VALID,93.469,VALID,0.100563,VALID,24.3246,VALID,170,VALID,0.151172,
2009-09-05, 02:53:04,VALID,1003.87,VALID,0,VALID,93.4614,VALID,0.100563,VALID,24.3265,VALID,164,VALID,0.167969,
2009-09-05, 02:54:04,VALID,1003.91,VALID,0,VALID,93.4538,VALID,0.100563,VALID,24.2839,VALID,142,VALID,0.665234,
2009-09-05, 02:55:04,VALID,1003.93,VALID,0,VALID,93.5148,VALID,0.100563,VALID,24.2857,VALID,143,VALID,0.392969,
2009-09-05, 02:56:04,VALID,1003.93,VALID,0,VALID,93.4462,VALID,0.100563,VALID,24.2857,VALID,131,VALID,0.864453,
2009-09-05, 02:57:04,VALID,1003.95,VALID,0,VALID,93.2478,VALID,0.100563,VALID,24.2662,VALID,118,VALID,0.804688,
2009-09-05, 02:58:04,VALID,1003.93,VALID,0,VALID,93.2325,VALID,0.100563,VALID,24.2857,VALID,142,VALID,0.628906,
2009-09-05, 02:59:04,VALID,1003.91,VALID,0,VALID,93.2783,VALID,0,VALID,24.2857,VALID,145,VALID,0.416797,
2009-09-05, 03:00:04,VALID,1003.91,VALID,0,VALID,93.1486,VALID,0,VALID,24.2681,VALID,145,VALID,0.666406,
2009-09-05, 03:01:04,VALID,1003.89,VALID,0,VALID,92.9503,VALID,0,VALID,24.2875,VALID,148,VALID,0.412891,
2009-09-05, 03:02:04,VALID,1003.9,VALID,0,VALID,92.6909,VALID,0,VALID,24.2468,VALID,159,VALID,0.497266,
2009-09-05, 03:03:04,VALID,1003.89,VALID,0,VALID,92.607,VALID,0.100563,VALID,24.2662,VALID,159,VALID,0.265234,
2009-09-05, 03:04:04,VALID,1003.87,VALID,0,VALID,92.4697,VALID,0.100563,VALID,24.2662,VALID,159,VALID,0.00429688,
2009-09-05, 03:05:04,VALID,1003.89,VALID,0,VALID,92.5002,VALID,0,VALID,24.2662,VALID,159,VALID,0.128906,
2009-09-05, 03:06:04,VALID,1003.89,VALID,0,VALID,92.5993,VALID,0,VALID,24.2662,VALID,159,VALID,0.287891,
2009-09-05, 03:07:04,VALID,1003.9,VALID,0,VALID,92.6299,VALID,0,VALID,24.2468,VALID,159,VALID,0,
2009-09-05, 03:08:04,VALID,1003.89,VALID,0,VALID,92.6909,VALID,0,VALID,24.2486,VALID,159,VALID,0,
2009-09-05, 03:09:04,VALID,1003.9,VALID,0,VALID,92.7443,VALID,0,VALID,24.2078,VALID,159,VALID,0,
2009-09-05, 03:10:04,VALID,1003.91,VALID,0,VALID,92.8892,VALID,0,VALID,24.1884,VALID,128,VALID,0,
2009-09-05, 03:11:04,VALID,1003.91,VALID,0,VALID,92.8358,VALID,0,VALID,24.1902,VALID,128,VALID,0,
2009-09-05, 03:12:04,VALID,1003.91,VALID,0,VALID,92.9503,VALID,0.100563,VALID,24.1494,VALID,128,VALID,0.357812,
2009-09-05, 03:13:04,VALID,1003.9,VALID,0,VALID,93.0037,VALID,0,VALID,24.1707,VALID,117,VALID,0.242188,
2009-09-05, 03:14:04,VALID,1003.91,VALID,0,VALID,92.8664,VALID,0.100563,VALID,24.1494,VALID,117,VALID,0.855859,
2009-09-05, 03:15:04,VALID,1003.89,VALID,0,VALID,92.935,VALID,0,VALID,24.1689,VALID,117,VALID,0.458984,
2009-09-05, 03:16:04,VALID,1003.91,VALID,0,VALID,93.0342,VALID,0.100563,VALID,24.1689,VALID,117,VALID,0.417969,
2009-09-05, 03:17:04,VALID,1003.9,VALID,0,VALID,92.935,VALID,0.100563,VALID,24.1494,VALID,139,VALID,0.760547,
2009-09-05, 03:18:04,VALID,1003.93,VALID,0,VALID,93.0113,VALID,0,VALID,24.1494,VALID,136,VALID,0.641406,
2009-09-05, 03:19:04,VALID,1003.94,VALID,0,VALID,92.9884,VALID,0.100563,VALID,24.13,VALID,118,VALID,0.803125,
2009-09-05, 03:20:04,VALID,1003.93,VALID,0.5,VALID,93.0189,VALID,0,VALID,24.13,VALID,133,VALID,0.780078,
2009-09-05, 03:21:04,VALID,1003.94,VALID,0,VALID,92.9198,VALID,0.100563,VALID,24.13,VALID,142,VALID,0.840234,
2009-09-05, 03:22:04,VALID,1003.93,VALID,0,VALID,92.7824,VALID,0.100563,VALID,24.1494,VALID,109,VALID,0.980469,
2009-09-05, 03:23:04,VALID,1003.96,VALID,0,VALID,92.7214,VALID,0.100563,VALID,24.1689,VALID,136,VALID,0.940234,
2009-09-05, 03:24:04,VALID,1003.95,VALID,0,VALID,92.6604,VALID,0,VALID,24.1689,VALID,140,VALID,0.800391,
2009-09-05, 03:25:04,VALID,1003.94,VALID,0,VALID,92.5917,VALID,0.100563,VALID,24.1689,VALID,138,VALID,0.773828,
2009-09-05, 03:26:04,VALID,1003.9,VALID,0,VALID,92.3705,VALID,0,VALID,24.1689,VALID,106,VALID,1.52148,
2009-09-05, 03:27:04,VALID,1003.92,VALID,0,VALID,92.2713,VALID,0,VALID,24.1884,VALID,109,VALID,1.81484,
2009-09-05, 03:28:04,VALID,1003.9,VALID,0,VALID,92.2027,VALID,0.100563,VALID,24.1884,VALID,113,VALID,1.50547,
2009-09-05, 03:29:04,VALID,1003.9,VALID,0,VALID,92.1264,VALID,0.100563,VALID,24.1689,VALID,119,VALID,1.20195,
2009-09-05, 03:30:04,VALID,1003.89,VALID,0,VALID,92.1264,VALID,0,VALID,24.1689,VALID,120,VALID,0.996484,
2009-09-05, 03:31:04,VALID,1003.91,VALID,0,VALID,92.1035,VALID,0.100563,VALID,24.1476,VALID,113,VALID,0.823828,
2009-09-05, 03:32:04,VALID,1003.92,VALID,0,VALID,92.0424,VALID,0.100563,VALID,24.1494,VALID,103,VALID,1.11719,
2009-09-05, 03:33:04,VALID,1003.92,VALID,0,VALID,91.9814,VALID,0.100563,VALID,24.13,VALID,75,VALID,1.36992,
2009-09-05, 03:34:04,VALID,1003.94,VALID,0,VALID,92.0119,VALID,0,VALID,24.1494,VALID,110,VALID,0.893359,
2009-09-05, 03:35:04,VALID,1003.95,VALID,0,VALID,92.1111,VALID,0.100563,VALID,24.1318,VALID,95,VALID,0.889844,
2009-09-05, 03:36:04,VALID,1003.96,VALID,0,VALID,92.0958,VALID,0.100563,VALID,24.091,VALID,124,VALID,1.63672,
2009-09-05, 03:37:04,VALID,1003.95,VALID,0,VALID,91.9356,VALID,0,VALID,24.1105,VALID,153,VALID,1.47656,
2009-09-05, 03:38:04,VALID,1003.94,VALID,0,VALID,91.8212,VALID,0,VALID,24.1123,VALID,114,VALID,1.61602,
2009-09-05, 03:39:04,VALID,1003.96,VALID,0,VALID,91.8899,VALID,0.100563,VALID,24.091,VALID,130,VALID,1.18906,
2009-09-05, 03:40:04,VALID,1003.97,VALID,0,VALID,91.8517,VALID,0.100563,VALID,24.0716,VALID,125,VALID,1.58555,
2009-09-05, 03:41:04,VALID,1003.95,VALID,0.5,VALID,91.9128,VALID,0,VALID,24.0521,VALID,100,VALID,0.987109,